Volver al catálogo

STARLINK-36136

ActivoComunicacionesVLEO
NORAD 66967·PAYLOAD·🇺🇸 United States

Lanzado Dec 8, 2025 desde Cape Canaveral Space Force Station

Loading…

Próximos Pases (próximas 24 horas)

TLE

ActualizadoSource: CelesTrak SupGP

Época: Sep 15, 2026, 03:47 UTC

1 66967C 25288J   26258.15812500  .00002708  00000+0  98114-4 0  2585
2 66967  43.0032  33.3595 0001534 267.6303 141.9712 15.27571332    18

Sigue STARLINK-36136 en tiempo real con AllMySat

Download on the App Store